User: anonymous   Login
Location: Unspecified
(0.0000°N, 0.0000°E)
Time: 01:52:50
(UTC+00:00)
Language:

STARLINK-33708 - Orbit

View from above orbital plane
View from above orbital plane
View from above satellite
View from above satellite

Ground track
Ground track

The orbit is defined by the following mean orbital elements,

1 63405U          26145.40478147 +.00000000 +00000-0 +11081-2 0 00007
2 63405  43.0049  33.7332 0002326 265.8100  94.2486 15.27609542    00
Epoch (UTC): 25 May 2026 09:42:53
Eccentricity: 0.0002326
inclination: 43.0049°
perigee height: 481 km
apogee height: 485 km
right ascension of ascending node: 33.7332°
argument of perigee: 265.8100°
revolutions per day: 15.27609542
mean anomaly at epoch: 94.2486°

The dashed part of the orbit path shows where the satellite is in the earth's shadow,  

DLR